| time (UTC) | temp C | wind direction | speed KPH | gust KPH | rain 1hr cm | rain 24hr cm | rain mn cm | humidity % | barometer mb |
| 20260906103404 | 20 | 223 | 0.0 | 17.7 | 0.00 | 0.00 | 0.00 | 88 | 1015.8 |
| 20260906101532 | 20 | 205 | 0.0 | 17.7 | 0.00 | 0.00 | 0.00 | 88 | 1015.5 |
| 20260906100731 | 20 | 235 | 1.6 | 17.7 | 0.00 | 0.00 | 0.00 | 88 | 1015.6 |
| 20260906095930 | 20 | 273 | 0.0 | 17.7 | 0.00 | 0.00 | 0.00 | 88 | 1016.0 |
| 20260906095130 | 21 | 288 | 0.0 | 17.7 | 0.00 | 0.00 | 0.00 | 88 | 1015.9 |
| 20260906093814 | 21 | 321 | 0.0 | 17.7 | 0.00 | 0.00 | 0.00 | 89 | 1015.6 |
| 20260906093013 | 21 | 243 | 0.0 | 17.7 | 0.00 | 0.00 | 0.00 | 89 | 1013.4 |
| 20260906092213 | 21 | 194 | 0.0 | 17.7 | 0.00 | 0.00 | 0.00 | 90 | 1015.6 |
| 20260906091412 | 21 | 181 | 0.0 | 17.7 | 0.00 | 0.00 | 0.00 | 90 | 1015.6 |
| 20260906090611 | 21 | 181 | 0.0 | 17.7 | 0.00 | 0.00 | 0.00 | 91 | 1015.4 |
| 20260906085810 | 21 | 202 | 0.0 | 17.7 | 0.00 | 0.00 | 0.00 | 91 | 1013.2 |
| 20260906085009 | 21 | 170 | 1.6 | 17.7 | 0.00 | 0.00 | 0.00 | 91 | 1015.5 |
| 20260906083653 | 21 | 317 | 0.0 | 17.7 | 0.00 | 0.00 | 0.00 | 91 | 1015.8 |
| 20260906082336 | 21 | 232 | 0.0 | 17.7 | 0.00 | 0.00 | 0.00 | 92 | 1013.1 |
| 20260906081536 | 21 | 329 | 0.0 | 17.7 | 0.00 | 0.00 | 0.00 | 92 | 1015.2 |
| 20260906080735 | 21 | 292 | 0.0 | 17.7 | 0.00 | 0.00 | 0.00 | 92 | 1014.9 |
| 20260906075934 | 21 | 228 | 0.0 | 17.7 | 0.00 | 0.00 | 0.00 | 91 | 1015.2 |
| 20260906075133 | 21 | 38 | 0.0 | 17.7 | 0.00 | 0.00 | 0.00 | 91 | 1015.0 |
| 20260906073300 | 21 | 257 | 0.0 | 17.7 | 0.00 | 0.00 | 0.00 | 91 | 1014.4 |
| 20260906072459 | 21 | 257 | 0.0 | 17.7 | 0.00 | 0.00 | 0.00 | 91 | 1014.9 |
| 20260906071658 | 21 | 252 | 0.0 | 17.7 | 0.00 | 0.00 | 0.00 | 91 | 1015.0 |
| 20260906070857 | 21 | 329 | 0.0 | 17.7 | 0.00 | 0.00 | 0.00 | 91 | 1015.3 |
| 20260906065541 | 21 | 0 | 0.0 | 17.7 | 0.00 | 0.00 | 0.00 | 90 | 1015.8 |
| 20260906064739 | 21 | 357 | 0.0 | 17.7 | 0.00 | 0.00 | 0.00 | 90 | 1015.5 |
| 20260906063938 | 22 | 336 | 0.0 | 17.7 | 0.00 | 0.00 | 0.00 | 90 | 1015.6 |
| 20260906063138 | 22 | 0 | 0.0 | 17.7 | 0.00 | 0.00 | 0.00 | 89 | 1015.4 |
| 20260906062339 | 22 | 357 | 0.0 | 17.7 | 0.00 | 0.00 | 0.00 | 89 | 1015.2 |
| 20260906061538 | 22 | 334 | 0.0 | 17.7 | 0.00 | 0.00 | 0.00 | 89 | 1015.4 |
| 20260906060222 | 22 | 336 | 0.0 | 17.7 | 0.00 | 0.00 | 0.00 | 89 | 1012.8 |
| 20260906055421 | 22 | 132 | 0.0 | 17.7 | 0.00 | 0.00 | 0.00 | 89 | 1015.0 |
| 20260906054620 | 22 | 358 | 0.0 | 17.7 | 0.00 | 0.00 | 0.00 | 89 | 1015.2 |
| 20260906053303 | 22 | 136 | 0.0 | 17.7 | 0.00 | 0.00 | 0.00 | 89 | 1015.0 |
| 20260906052504 | 22 | 112 | 0.0 | 17.7 | 0.00 | 0.00 | 0.00 | 89 | 1014.2 |
| 20260906051704 | 22 | 115 | 0.0 | 17.7 | 0.00 | 0.00 | 0.00 | 89 | 1015.0 |
| 20260906050904 | 22 | 115 | 0.0 | 17.7 | 0.00 | 0.00 | 0.00 | 88 | 1014.7 |
| 20260906044747 | 22 | 245 | 0.0 | 17.7 | 0.00 | 0.00 | 0.00 | 88 | 1014.7 |
| 20260906043946 | 22 | 236 | 0.0 | 17.7 | 0.00 | 0.00 | 0.00 | 88 | 1014.9 |
| 20260906043145 | 22 | 185 | 0.0 | 17.7 | 0.00 | 0.00 | 0.00 | 87 | 1012.7 |
| 20260906041828 | 22 | 241 | 0.0 | 17.7 | 0.00 | 0.00 | 0.00 | 87 | 1014.9 |
| 20260906041028 | 22 | 198 | 0.0 | 17.7 | 0.00 | 0.00 | 0.00 | 87 | 1012.4 |
| 20260906040228 | 22 | 187 | 0.0 | 17.7 | 0.00 | 0.00 | 0.00 | 87 | 1014.8 |
| 20260906034913 | 22 | 211 | 0.0 | 17.7 | 0.00 | 0.00 | 0.00 | 87 | 1014.6 |
| 20260906034113 | 22 | 129 | 0.0 | 17.7 | 0.00 | 0.00 | 0.00 | 87 | 1014.2 |
| 20260906033312 | 22 | 220 | 0.0 | 17.7 | 0.00 | 0.00 | 0.00 | 87 | 1014.2 |
| 20260906032511 | 22 | 133 | 1.6 | 17.7 | 0.00 | 0.00 | 0.00 | 86 | 1014.6 |
| 20260906031711 | 22 | 143 | 0.0 | 17.7 | 0.00 | 0.00 | 0.00 | 86 | 1014.3 |
| 20260906030910 | 22 | 110 | 0.0 | 17.7 | 0.00 | 0.00 | 0.00 | 86 | 1014.8 |
| 20260906030110 | 23 | 261 | 0.0 | 17.7 | 0.00 | 0.00 | 0.00 | 85 | 1014.4 |
| 20260906025310 | 23 | 125 | 1.6 | 17.7 | 0.00 | 0.00 | 0.00 | 85 | 1014.5 |
| 20260906024510 | 23 | 158 | 0.0 | 17.7 | 0.00 | 0.00 | 0.00 | 85 | 1014.5 |
| 20260906023710 | 23 | 144 | 0.0 | 17.7 | 0.00 | 0.00 | 0.00 | 85 | 1014.4 |
| 20260906022909 | 23 | 92 | 0.0 | 17.7 | 0.00 | 0.00 | 0.00 | 84 | 1013.9 |
| 20260906022108 | 23 | 227 | 0.0 | 17.7 | 0.00 | 0.00 | 0.00 | 84 | 1012.0 |
| 20260906015719 | 24 | 228 | 1.6 | 17.7 | 0.00 | 0.00 | 0.00 | 83 | 1014.1 |
| 20260906014919 | 25 | 141 | 0.0 | 17.7 | 0.00 | 0.00 | 0.00 | 82 | 1011.6 |
| 20260906014118 | 25 | 180 | 1.6 | 17.7 | 0.00 | 0.00 | 0.00 | 81 | 1013.6 |
| 20260906013318 | 25 | 150 | 0.0 | 17.7 | 0.00 | 0.00 | 0.00 | 80 | 1012.9 |
| 20260906012517 | 25 | 157 | 0.0 | 17.7 | 0.00 | 0.00 | 0.00 | 79 | 1013.1 |
| 20260906011717 | 26 | 115 | 1.6 | 17.7 | 0.00 | 0.00 | 0.00 | 78 | 1013.0 |
| 20260906010916 | 26 | 156 | 0.0 | 17.7 | 0.00 | 0.00 | 0.00 | 78 | 1013.1 |
| 20260906010115 | 26 | 182 | 0.0 | 17.7 | 0.00 | 0.00 | 0.00 | 78 | 1013.8 |
| 20260906005314 | 26 | 184 | 0.0 | 17.7 | 0.00 | 0.00 | 0.00 | 77 | 1010.9 |
| 20260906004513 | 27 | 253 | 0.0 | 17.7 | 0.00 | 0.00 | 0.00 | 76 | 1013.2 |
| 20260906003713 | 27 | 252 | 0.0 | 17.7 | 0.00 | 0.00 | 0.00 | 76 | 1013.1 |
| 20260906002913 | 27 | 115 | 0.0 | 17.7 | 0.00 | 0.00 | 0.00 | 75 | 1012.9 |
| 20260906002112 | 27 | 103 | 1.6 | 17.7 | 0.00 | 0.00 | 0.00 | 74 | 1012.3 |
| 20260906001311 | 28 | 335 | 3.2 | 17.7 | 0.00 | 0.00 | 0.00 | 74 | 1012.7 |
| 20260906000511 | 28 | 349 | 1.6 | 17.7 | 0.00 | 0.00 | 0.00 | 73 | 1010.5 |
| 20260905235711 | 28 | 335 | 1.6 | 17.7 | 0.00 | 0.00 | 0.00 | 73 | 1013.1 |
| 20260905233838 | 29 | 336 | 1.6 | 17.7 | 0.00 | 0.00 | 0.00 | 72 | 1012.8 |
| 20260905233037 | 30 | 354 | 1.6 | 17.7 | 0.00 | 0.00 | 0.00 | 73 | 1012.8 |
| 20260905232237 | 30 | 279 | 1.6 | 17.7 | 0.00 | 0.00 | 0.00 | 73 | 1012.5 |
| 20260905231437 | 30 | 336 | 3.2 | 17.7 | 0.00 | 0.00 | 0.00 | 73 | 1012.6 |
| 20260905230636 | 31 | 322 | 1.6 | 17.7 | 0.00 | 0.00 | 0.00 | 72 | 1012.6 |
| 20260905225319 | 31 | 282 | 1.6 | 17.7 | 0.00 | 0.00 | 0.00 | 70 | 1012.2 |
| 20260905224518 | 31 | 277 | 3.2 | 17.7 | 0.00 | 0.00 | 0.00 | 70 | 1012.2 |
| 20260905223717 | 32 | 315 | 3.2 | 17.7 | 0.00 | 0.00 | 0.00 | 70 | 1012.0 |
| 20260905222400 | 32 | 308 | 3.2 | 17.7 | 0.00 | 0.00 | 0.00 | 68 | 1009.9 |
| 20260905221600 | 33 | 283 | 4.8 | 17.7 | 0.00 | 0.00 | 0.00 | 66 | 1011.8 |
| 20260905220759 | 32 | 341 | 0.0 | 17.7 | 0.00 | 0.00 | 0.00 | 69 | 1011.9 |
| 20260905214926 | 33 | 302 | 1.6 | 17.7 | 0.00 | 0.00 | 0.00 | 66 | 1011.6 |
| 20260905214125 | 33 | 318 | 3.2 | 17.7 | 0.00 | 0.00 | 0.00 | 65 | 1011.9 |
| 20260905213324 | 33 | 298 | 1.6 | 17.7 | 0.00 | 0.00 | 0.00 | 67 | 1011.6 |
| 20260905212523 | 33 | 340 | 1.6 | 17.7 | 0.00 | 0.00 | 0.00 | 66 | 1011.6 |
| 20260905211722 | 33 | 304 | 1.6 | 17.7 | 0.00 | 0.00 | 0.00 | 66 | 1011.7 |
| 20260905210922 | 33 | 317 | 1.6 | 17.7 | 0.00 | 0.00 | 0.00 | 68 | 1011.7 |
| 20260905210122 | 33 | 299 | 1.6 | 17.7 | 0.00 | 0.00 | 0.00 | 66 | 1010.9 |
| 20260905205322 | 34 | 345 | 1.6 | 17.7 | 0.00 | 0.00 | 0.00 | 65 | 1012.0 |
| 20260905204522 | 34 | 334 | 3.2 | 17.7 | 0.00 | 0.00 | 0.00 | 63 | 1012.5 |
| 20260905203722 | 33 | 305 | 3.2 | 17.7 | 0.00 | 0.00 | 0.00 | 64 | 1012.0 |
| 20260905202923 | 34 | 296 | 1.6 | 17.7 | 0.00 | 0.00 | 0.00 | 63 | 1012.3 |
| 20260905202121 | 34 | 339 | 3.2 | 17.7 | 0.00 | 0.00 | 0.00 | 63 | 1012.2 |
| 20260905200248 | 34 | 342 | 1.6 | 17.7 | 0.00 | 0.00 | 0.00 | 63 | 1011.8 |
| 20260905195448 | 33 | 308 | 1.6 | 17.7 | 0.00 | 0.00 | 0.00 | 67 | 1010.1 |
| 20260905194131 | 33 | 303 | 0.0 | 17.7 | 0.00 | 0.00 | 0.00 | 68 | 1010.6 |
| 20260905193332 | 33 | 313 | 0.0 | 17.7 | 0.00 | 0.00 | 0.00 | 67 | 1012.8 |
| 20260905192014 | 33 | 325 | 1.6 | 17.7 | 0.00 | 0.00 | 0.00 | 67 | 1010.4 |
| 20260905191213 | 33 | 316 | 0.0 | 17.7 | 0.00 | 0.00 | 0.00 | 70 | 1013.1 |
| 20260905190412 | 32 | 328 | 0.0 | 17.7 | 0.00 | 0.00 | 0.00 | 72 | 1010.4 |
| 20260905185058 | 32 | 305 | 0.0 | 17.7 | 0.00 | 0.00 | 0.00 | 72 | 1012.7 |
| 20260905184258 | 33 | 343 | 0.0 | 17.7 | 0.00 | 0.00 | 0.00 | 69 | 1013.0 |
| 20260905183457 | 33 | 329 | 0.0 | 17.7 | 0.00 | 0.00 | 0.00 | 70 | 1013.2 |
| 20260905182655 | 34 | 269 | 0.0 | 17.7 | 0.00 | 0.00 | 0.00 | 64 | 1013.2 |
| 20260905181854 | 33 | 168 | 0.0 | 17.7 | 0.00 | 0.00 | 0.00 | 67 | 1013.3 |
| 20260905181054 | 33 | 303 | 0.0 | 17.7 | 0.00 | 0.00 | 0.00 | 69 | 1013.2 |
| 20260905175736 | 34 | 119 | 3.2 | 17.7 | 0.00 | 0.00 | 0.00 | 67 | 1011.0 |
| 20260905174936 | 34 | 126 | 0.0 | 17.7 | 0.00 | 0.00 | 0.00 | 67 | 1013.4 |
| 20260905174135 | 33 | 340 | 0.0 | 17.7 | 0.00 | 0.00 | 0.00 | 69 | 1013.7 |
| 20260905172305 | 32 | 213 | 0.0 | 17.7 | 0.00 | 0.00 | 0.00 | 68 | 1013.9 |
| 20260905171502 | 33 | 306 | 1.6 | 17.7 | 0.00 | 0.00 | 0.00 | 67 | 1013.8 |
| 20260905170702 | 33 | 332 | 0.0 | 17.7 | 0.00 | 0.00 | 0.00 | 69 | 1011.9 |
| 20260905165901 | 32 | 274 | 0.0 | 17.7 | 0.00 | 0.00 | 0.00 | 66 | 1011.6 |
| 20260905165057 | 32 | 336 | 1.6 | 17.7 | 0.00 | 0.00 | 0.00 | 70 | 1013.7 |
| 20260905163740 | 32 | 41 | 0.0 | 17.7 | 0.00 | 0.00 | 0.00 | 71 | 1013.9 |
| 20260905162939 | 32 | 103 | 0.0 | 17.7 | 0.00 | 0.00 | 0.00 | 73 | 1013.1 |
| 20260905162139 | 32 | 85 | 1.6 | 17.7 | 0.00 | 0.00 | 0.00 | 74 | 1011.4 |
| 20260905161338 | 31 | 217 | 0.0 | 17.7 | 0.00 | 0.00 | 0.00 | 75 | 1013.6 |
| 20260905160537 | 31 | 141 | 0.0 | 17.7 | 0.00 | 0.00 | 0.00 | 78 | 1013.8 |
| 20260905155736 | 30 | 185 | 0.0 | 17.7 | 0.00 | 0.00 | 0.00 | 76 | 1014.2 |
| 20260905154419 | 29 | 133 | 0.0 | 17.7 | 0.00 | 0.00 | 0.00 | 82 | 1014.0 |
| 20260905153102 | 28 | 13 | 0.0 | 17.7 | 0.00 | 0.00 | 0.00 | 81 | 1011.5 |
| 20260905151745 | 29 | 114 | 0.0 | 17.7 | 0.00 | 0.00 | 0.00 | 78 | 1011.6 |
| 20260905150945 | 30 | 64 | 0.0 | 17.7 | 0.00 | 0.00 | 0.00 | 77 | 1011.7 |
| 20260905150144 | 29 | 86 | 1.6 | 17.7 | 0.00 | 0.00 | 0.00 | 78 | 1011.8 |
| 20260905145343 | 28 | 86 | 1.6 | 17.7 | 0.00 | 0.00 | 0.00 | 79 | 1014.4 |
| 20260905144543 | 28 | 89 | 0.0 | 17.7 | 0.00 | 0.00 | 0.00 | 80 | 1011.7 |
| 20260905143742 | 28 | 108 | 3.2 | 17.7 | 0.00 | 0.00 | 0.00 | 79 | 1014.1 |
| 20260905142941 | 30 | 92 | 1.6 | 17.7 | 0.00 | 0.00 | 0.00 | 76 | 1014.0 |
| 20260905142140 | 31 | 138 | 0.0 | 17.7 | 0.00 | 0.00 | 0.00 | 74 | 1011.3 |
| 20260905140823 | 31 | 227 | 0.0 | 17.7 | 0.00 | 0.00 | 0.00 | 72 | 1012.0 |
| 20260905140022 | 31 | 202 | 0.0 | 17.7 | 0.00 | 0.00 | 0.00 | 75 | 1011.3 |
| 20260905135221 | 30 | 202 | 0.0 | 17.7 | 0.00 | 0.00 | 0.00 | 76 | 1013.5 |
| 20260905133904 | 30 | 202 | 0.0 | 17.7 | 0.00 | 0.00 | 0.00 | 77 | 1013.9 |
| 20260905133103 | 29 | 202 | 0.0 | 17.7 | 0.00 | 0.00 | 0.00 | 81 | 1013.4 |
| 20260905132305 | 28 | 202 | 0.0 | 17.7 | 0.00 | 0.00 | 0.00 | 83 | 1013.5 |
| 20260905131503 | 27 | 202 | 0.0 | 17.7 | 0.00 | 0.00 | 0.00 | 85 | 1011.4 |
| 20260905130703 | 27 | 203 | 0.0 | 17.7 | 0.00 | 0.00 | 0.00 | 86 | 1011.4 |
| 20260905125903 | 26 | 209 | 0.0 | 17.7 | 0.00 | 0.00 | 0.00 | 87 | 1014.0 |
| 20260905125103 | 26 | 210 | 0.0 | 17.7 | 0.00 | 0.00 | 0.00 | 88 | 1013.7 |
| 20260905123747 | 25 | 209 | 0.0 | 17.7 | 0.00 | 0.00 | 0.00 | 90 | 1014.0 |
| 20260905122946 | 24 | 205 | 0.0 | 17.7 | 0.00 | 0.00 | 0.00 | 91 | 1013.5 |
| 20260905122146 | 23 | 163 | 0.0 | 17.7 | 0.00 | 0.00 | 0.00 | 91 | 1013.3 |
| 20260905121345 | 23 | 228 | 0.0 | 17.7 | 0.00 | 0.00 | 0.00 | 92 | 1013.4 |
| 20260905120544 | 23 | 234 | 0.0 | 17.7 | 0.00 | 0.00 | 0.00 | 92 | 1011.1 |
| 20260905115744 | 23 | 233 | 0.0 | 17.7 | 0.00 | 0.00 | 0.00 | 92 | 1011.4 |
| 20260905114943 | 23 | 231 | 0.0 | 17.7 | 0.00 | 0.00 | 0.00 | 92 | 1013.4 |
| 20260905113628 | 23 | 229 | 0.0 | 17.7 | 0.00 | 0.00 | 0.00 | 92 | 1013.6 |
| 20260905112828 | 23 | 231 | 0.0 | 17.7 | 0.00 | 0.00 | 0.00 | 93 | 1013.0 |
| 20260905112027 | 23 | 230 | 0.0 | 17.7 | 0.00 | 0.00 | 0.00 | 93 | 1013.3 |
| 20260905111227 | 23 | 229 | 0.0 | 17.7 | 0.00 | 0.00 | 0.00 | 93 | 1013.1 |
| 20260905105912 | 23 | 230 | 0.0 | 17.7 | 0.00 | 0.00 | 0.00 | 93 | 1013.7 |
| 20260905105111 | 23 | 229 | 0.0 | 17.7 | 0.00 | 0.00 | 0.00 | 93 | 1013.5 |
| 20260905104311 | 23 | 230 | 0.0 | 17.7 | 0.00 | 0.00 | 0.00 | 93 | 1013.7 |